TimeEDT,TemperatureF,Dew PointF,Humidity,Sea Level PressureIn,VisibilityMPH,Wind Direction,Wind SpeedMPH,Gust SpeedMPH,PrecipitationIn,Events,Conditions,WindDirDegrees,DateUTC
12:54 AM,55.9,46.9,72,30.12,10.0,East,4.6,-,N/A,,Clear,100,2013-09-15 04:54:00
1:54 AM,54.0,46.9,77,30.11,10.0,SE,5.8,-,N/A,,Clear,130,2013-09-15 05:54:00
2:54 AM,54.0,46.9,77,30.10,10.0,ESE,5.8,-,N/A,,Clear,120,2013-09-15 06:54:00
3:54 AM,54.0,46.9,77,30.11,10.0,Calm,Calm,-,N/A,,Clear,0,2013-09-15 07:54:00
4:54 AM,52.0,46.9,83,30.12,10.0,SSE,3.5,-,N/A,,Clear,150,2013-09-15 08:54:00
5:54 AM,51.1,46.9,86,30.11,10.0,SSE,3.5,-,N/A,,Clear,150,2013-09-15 09:54:00
6:54 AM,52.0,48.0,86,30.12,10.0,SE,3.5,-,N/A,,Clear,140,2013-09-15 10:54:00
7:54 AM,52.0,48.0,86,30.13,10.0,SSE,5.8,-,N/A,,Clear,150,2013-09-15 11:54:00
8:54 AM,55.9,51.1,84,30.14,10.0,SSE,5.8,-,N/A,,Clear,160,2013-09-15 12:54:00
9:54 AM,64.0,54.0,70,30.14,10.0,SSE,6.9,-,N/A,,Clear,160,2013-09-15 13:54:00
10:54 AM,69.1,55.0,61,30.15,10.0,SW,10.4,-,N/A,,Partly Cloudy,220,2013-09-15 14:54:00
11:54 AM,73.0,57.9,59,30.14,10.0,SSW,8.1,-,0.00,Rain,Light Rain,200,2013-09-15 15:54:00
12:54 PM,73.9,57.9,57,30.13,10.0,WSW,10.4,-,0.00,Rain,Light Rain,240,2013-09-15 16:54:00
1:54 PM,78.1,59.0,52,30.11,10.0,SW,12.7,-,0.00,,Partly Cloudy,230,2013-09-15 17:54:00
2:54 PM,78.1,57.9,50,30.10,10.0,SW,12.7,-,0.00,,Mostly Cloudy,220,2013-09-15 18:54:00
3:54 PM,77.0,59.0,54,30.08,10.0,SSW,10.4,-,N/A,,Partly Cloudy,210,2013-09-15 19:54:00
4:54 PM,78.1,59.0,52,30.07,10.0,SW,9.2,-,N/A,,Partly Cloudy,230,2013-09-15 20:54:00
5:54 PM,77.0,57.9,52,30.07,10.0,WSW,10.4,-,N/A,,Partly Cloudy,240,2013-09-15 21:54:00
6:54 PM,75.9,59.0,56,30.07,10.0,SW,8.1,-,N/A,,Clear,220,2013-09-15 22:54:00
7:54 PM,71.1,59.0,66,30.08,10.0,SSW,5.8,-,N/A,,Clear,210,2013-09-15 23:54:00
8:54 PM,66.9,59.0,76,30.08,10.0,South,6.9,-,N/A,,Clear,190,2013-09-16 00:54:00
9:54 PM,64.9,59.0,81,30.07,10.0,South,5.8,-,N/A,,Clear,180,2013-09-16 01:54:00
10:54 PM,66.0,59.0,78,30.07,10.0,South,5.8,-,N/A,,Clear,190,2013-09-16 02:54:00
11:54 PM,66.0,59.0,78,30.07,10.0,SSW,4.6,-,N/A,,Clear,210,2013-09-16 03:54:00